Regional Weather Roundup
Issued by NWS Little Rock, AR

Home | Current Version | Previous Version | Graphics & Text | Print | Product List | Glossary On
Versions: 1 2 3 4 5 6 7 8 9 10 11 12 13 14 15 16 17 18 19 20 21 22 23 24 25 26 27 28 29 30 31 32
000
ASUS44 KLZK 292305
RWRLZK

WEATHER ROUNDUP FOR ARKANSAS
NATIONAL WEATHER SERVICE LITTLE ROCK AR
600 PM CDT THU SEP 29 2016

NOTE: "FAIR" INDICATES FEW OR NO CLOUDS BELOW 12,000 FEET WITH NO
SIGNIFICANT WEATHER AND/OR OBSTRUCTIONS TO VISIBILITY.

ARZ001-003-010-029-300000-
NORTHWEST ARKANSAS

CITY           SKY/WX    TMP DP  RH WIND       PRES   REMARKS
FAYETTEVILLE   SUNNY     69  48  47 NW9       30.23S
FORT SMITH     SUNNY     76  44  32 N13       30.19S
HARRISON       SUNNY     70  46  42 N5        30.21S
BENTONVILLE    SUNNY     70  45  40 N6        30.25S
ROGERS         SUNNY     68  48  48 NW8       30.25S
SILOAM SPGS    SUNNY     70  45  40 N8        30.25S
HIGHFILL       SUNNY     70  49  47 N9        30.24S
SPRINGDALE     SUNNY     70  48  46 N12       30.25S
$$

ARZ004-005-016-300000-
NORTH CENTRAL ARKANSAS

CITY           SKY/WX    TMP DP  RH WIND       PRES   REMARKS
BATESVILLE     PTCLDY    73  48  40 NW6       30.15S
FLIPPIN        SUNNY     73  45  35 N6        30.17R
MTN HOME       SUNNY     72  48  42 MISG      30.18S
$$

ARZ040-041-300000-
WEST CENTRAL ARKANSAS

CITY           SKY/WX    TMP DP  RH WIND       PRES   REMARKS
MENA           SUNNY     73  48  40 N6        30.20S
MOUNT IDA      SUNNY     74  49  41 CALM      30.17R
$$

ARZ009-017-025-026-028-300000-
NORTHEAST ARKANSAS

CITY           SKY/WX    TMP DP  RH WIND       PRES   REMARKS
CORNING          N/A     72  55  56 N10G17    30.15S
JONESBORO      CLEAR     73  53  49 N7        30.13R
NEWPORT        LGT RAIN  74  51  44 N13       30.13S
WALNUT RIDGE   PTCLDY    72  52  49 N12       30.14S
BLYTHEVILLE    MOCLDY    70  52  52 N10G21    30.14R
$$

ARZ022-023-033-042-044-300000-
CENTRAL ARKANSAS

CITY           SKY/WX    TMP DP  RH WIND       PRES   REMARKS
LITTLE ROCK    MOSUNNY   77  49  37 N9        30.15R
JACKSONVILLE   SUNNY     76  51  41 VRB6      30.14S
SEARCY         CLEAR     75  51  43 N9        30.15S
HOT SPRINGS    SUNNY     75  47  36 N6        30.17R
RUSSELLVILLE   SUNNY     75  49  39 N7        30.17R
$$

ARZ036-300000-
EAST ARKANSAS

CITY           SKY/WX    TMP DP  RH WIND       PRES   REMARKS
WEST MEMPHIS   CLEAR     73  52  47 N14       30.11R
$$

ARZ050-053-066-070-073-300000-
SOUTHWEST ARKANSAS

CITY           SKY/WX    TMP DP  RH WIND       PRES   REMARKS
ARKADELPHIA    FAIR      74  52  46 N6        30.17R
TEXARKANA      SUNNY     76  48  37 N9        30.18S
EL DORADO      SUNNY     74  50  42 NW6       30.16S
DE QUEEN       SUNNY     75  50  41 N6        30.17R
$$

ARZ056-057-069-300000-
SOUTHEAST ARKANSAS

CITY           SKY/WX    TMP DP  RH WIND       PRES   REMARKS
PINE BLUFF     SUNNY     74  50  42 NW8       30.14S
STUTTGART      CLEAR     75  48  38 NW13      30.14R
MONTICELLO     SUNNY     75  49  39 VRB3      30.14S

$$






USA.gov is the U.S. government's official web portal to all federal, state and local government web resources and services.